Flag for Bosnia-Herzegovina Weather past 2 weeks in Mostar, Bosnia-Herzegovina

Now
57 °F

Passing clouds.


Feels Like: 52 °F
Forecast: 37 / 62 °F
Wind: 25 mph from Northeast

Location: Mostar

Current Time: Mar 28, 2015 at 3:21:38 PM

Latest Report: Mar 28, 2015 at 3:00 PM


Visibility: N/A

Pressure: 29.80 "Hg

Humidity: 36%

Dew point: 30 °F

Location of MostarLocation

Historic Weather in Mostar — Graph

°F

Mostar temperature yesterday

Maximum temperature yesterday: 73 °F (at 12:30 PM)
Minimum temperature yesterday: 45 °F (at 5:00 AM)
Average temperature yesterday: 61 °F

Past Weeks' High & Low Weather Summary

 TemperatureHumidityPressure
High73 °F (Mar 27, 12:30 PM)100% (Mar 23, 12:00 AM)30.36 "Hg (Mar 23, 12:00 AM)
Low28 °F (Mar 21, 6:00 AM)20% (Mar 20, 3:00 PM)29.47 "Hg (Mar 27, 1:00 PM)
Average52 °F58%30.01 "Hg
* Reported Mar 13 2:00 PM — Mar 28 2:00 PM, Mostar, Weather by CustomWeather, © 2015

Note: Actual official high and low records may vary slightly from our data, if they occured in-between our weather recording intervals... More about our weather records

Advertising

Mostar weather history for previous 24 hours

 ConditionsComfort  
Time TempWeatherWind HumidityBarometerVisibility
2:00 PM
Sat, Mar 28
55 °FScattered clouds.32 mph41%29.80 "HgN/A
1:30 PM57 °FPassing clouds.30 mph39%29.80 "HgN/A
1:00 PM59 °FPassing clouds.18 mph36%29.80 "HgN/A
12:30 PM59 °FPassing clouds.20 mph36%29.80 "HgN/A
12:00 PM59 °FPassing clouds.20 mph36%29.80 "HgN/A
11:30 AM59 °FPassing clouds.13 mph36%29.80 "HgN/A
11:00 AM57 °FPassing clouds.12 mph39%29.80 "HgN/A
10:30 AM55 °FScattered clouds.17 mph38%29.77 "HgN/A
10:00 AM55 °FScattered clouds.16 mph38%29.80 "HgN/A
9:30 AM55 °FScattered clouds.16 mph38%29.77 "HgN/A
9:00 AM55 °FScattered clouds.9 mph38%29.77 "HgN/A
8:30 AM55 °FScattered clouds.10 mph41%29.77 "HgN/A
8:00 AM55 °FPassing clouds.9 mph38%29.74 "HgN/A
7:30 AM54 °FPassing clouds.13 mph44%29.74 "HgN/A
7:00 AM54 °FPassing clouds.10 mph44%29.74 "HgN/A
6:30 AM55 °FPassing clouds.10 mph38%29.74 "HgN/A
6:00 AM55 °FPassing clouds.13 mph41%29.71 "HgN/A
5:00 AM55 °FPassing clouds.9 mph44%29.71 "HgN/A
4:00 AM57 °FPassing clouds.14 mph39%29.68 "HgN/A
3:00 AM57 °FPassing clouds.15 mph39%29.68 "HgN/A
2:00 AM57 °FPassing clouds.16 mph39%29.68 "HgN/A
1:00 AM55 °FPassing clouds.14 mph47%29.68 "HgN/A
12:00 AM57 °FPassing clouds.16 mph48%29.68 "HgN/A
11:00 PM
Fri, Mar 27
57 °FPassing clouds.14 mph48%29.68 "HgN/A
10:00 PM57 °FPassing clouds.17 mph51%29.65 "HgN/A
9:00 PM57 °FPassing clouds.10 mph55%29.65 "HgN/A
8:00 PM59 °FPassing clouds.12 mph55%29.62 "HgN/A
7:00 PM63 °FPassing clouds.17 mph49%29.56 "HgN/A
6:00 PM64 °FPartly sunny.15 mph46%29.53 "HgN/A
5:00 PM64 °FScattered clouds.15 mph49%29.53 "HgN/A
4:00 PM66 °FBroken clouds.15 mph43%29.50 "HgN/A
3:30 PM64 °FLight rain. Broken clouds.7 mph49%29.50 "HgN/A
3:00 PM68 °FLight rain. Broken clouds.7 mph40%29.50 "HgN/A
Weather by CustomWeather, © 2015

See weather overviewHow to use our weather pages